Location: Ithaca
(42.4410°N, 76.4970°W)
Time: 23:08:39
(UTC-05:00)

ISS - Visible Passes

Search period start: 24 November 2017 00:00
Search period end: 04 December 2017 00:00
Orbit: 401 x 407 km, 51.6° (Epoch: 25 November)

Date Brightness Start Highest point End Pass type
(mag) Time Alt. Az. Time Alt. Az. Time Alt. Az.
26 Nov -2.3 18:33:49 10° SSW 18:35:44 28° S 18:35:44 28° S visible
27 Nov -2.2 17:42:05 10° S 17:44:40 22° SE 17:45:46 18° ESE visible
27 Nov -0.7 19:17:46 10° WSW 19:18:26 15° W 19:18:26 15° W visible
28 Nov -3.8 18:25:14 10° WSW 18:28:22 79° W 18:28:22 79° W visible
29 Nov -3.5 17:32:57 10° SW 17:36:09 51° SE 17:38:14 19° ENE visible
29 Nov -0.9 19:09:52 10° W 19:10:53 17° WNW 19:10:53 17° WNW visible
30 Nov -3.0 18:17:05 10° W 18:20:13 41° NNW 18:20:40 38° N visible
01 Dec -3.7 17:24:27 10° WSW 17:27:43 69° NNW 17:30:24 14° NE visible
01 Dec -1.0 19:02:07 10° WNW 19:03:03 15° NW 19:03:03 15° NW visible
02 Dec -2.2 18:09:11 10° WNW 18:11:59 25° NNW 18:12:43 23° N visible
03 Dec -2.7 17:16:18 10° W 17:19:22 35° NNW 17:22:21 11° NE visible
03 Dec -1.0 18:54:18 10° NW 18:55:00 13° NW 18:55:00 13° NW visible
